Change the Weather History Date:

Thursday, January 3, 2013

  Actual Average Record
Temperature  
Mean Temperature 42 °F 49 °F  
Max Temperature 48 °F 60 °F 78 °F (2000)
Min Temperature 36 °F 38 °F 21 °F (2001)
Degree Days  
Heating Degree Days 23 16  
Month to date heating degree days 33 48  
Since 1 July heating degree days 672 761  
Moisture  
Dew Point 40 °F    
Average Humidity 87    
Maximum Humidity 93    
Minimum Humidity 76    
Precipitation  
Precipitation 0.10 in 0.14 in 1.46 in (1942)
Month to date precipitation 0.10 0.45  
Year to date precipitation 0.10 0.45  
Sea Level Pressure  
Sea Level Pressure 30.26 in    
Wind  
Wind Speed 7 mph (NNW)    
Max Wind Speed 13 mph    
Max Gust Speed -    
Visibility 9 miles    
Events Rain    
T = Trace of Precipitation, MM = Missing Value Source: NWS Daily Summary

Daily Weather History Graph

Daily Weather History Graph

Search for Another Location

Airport or City:

Trip Planner

Search our weather history database for the weather conditions in past years. The results will help you decide how hot, cold, wet, or windy it might be!

Date:

Astronomy

Jan. 03, 2013 Rise Set
Actual Time 6:41 AM CST 4:51 PM CST
Civil Twilight 6:14 AM CST 5:18 PM CST
Nautical Twilight 5:44 AM CST 5:48 PM CST
Astronomical Twilight 5:14 AM CST 6:18 PM CST
Moon 10:59 PM CST (1/3) 10:17 AM CST (1/3)
Length of Visible Light 11h 03m
Length of Day
10h 10m
Waning Gibbous, 65% of the Moon is Illuminated
Jan 3
Waning Gibbous
Jan 4
Last Quarter
Jan 11
New
Jan 18
First Quarter
Jan 26
Full

Hourly Weather History & Observations

Time (CST) Temp. Windchill Dew Point Humidity Pressure Visibility Wind Dir Wind Speed Gust Speed Precip Events Conditions
12:53 AM 48.0 °F - 42.1 °F 80% 30.18 in 10.0 mi NNW 5.8 mph - N/A   Overcast
1:53 AM 46.9 °F - 42.1 °F 83% 30.19 in 10.0 mi NW 10.4 mph - 0.00 in   Overcast
2:53 AM 45.0 °F 40.1 °F 42.1 °F 90% 30.19 in 10.0 mi North 9.2 mph - 0.00 in Rain Light Rain
3:53 AM 45.0 °F 41.8 °F 41.0 °F 86% 30.19 in 10.0 mi North 5.8 mph - 0.00 in   Overcast
4:53 AM 44.1 °F 39.0 °F 41.0 °F 89% 30.19 in 10.0 mi North 9.2 mph - 0.01 in   Overcast
5:53 AM 43.0 °F 37.7 °F 41.0 °F 93% 30.21 in 9.0 mi North 9.2 mph - 0.00 in Rain Light Rain
6:12 AM 42.8 °F 38.6 °F 41.0 °F 93% 30.22 in 10.0 mi NNW 6.9 mph - 0.00 in Rain Light Rain
6:14 AM 42.8 °F 38.0 °F 41.0 °F 93% 30.22 in 9.0 mi NNW 8.1 mph - 0.00 in Rain Light Rain
6:42 AM 42.8 °F 38.6 °F 41.0 °F 93% 30.22 in 8.0 mi North 6.9 mph - 0.00 in Rain Light Rain
6:53 AM 43.0 °F 41.3 °F 41.0 °F 93% 30.23 in 8.0 mi North 3.5 mph - 0.00 in Rain Light Rain
7:53 AM 43.0 °F 39.5 °F 41.0 °F 93% 30.25 in 9.0 mi North 5.8 mph - 0.00 in Rain Light Rain
8:49 AM 42.8 °F 38.6 °F 41.0 °F 93% 30.28 in 10.0 mi NNW 6.9 mph - 0.00 in Rain Light Rain
8:53 AM 44.1 °F 40.1 °F 41.0 °F 89% 30.28 in 6.0 mi NNW 6.9 mph - 0.00 in Rain Light Rain
9:53 AM 43.0 °F 36.4 °F 41.0 °F 93% 30.29 in 5.0 mi NNW 12.7 mph - 0.05 in Rain Light Rain
10:53 AM 44.1 °F 42.5 °F 42.1 °F 93% 30.25 in 6.0 mi ENE 3.5 mph - 0.03 in Rain Light Rain
11:53 AM 45.0 °F 40.1 °F 42.1 °F 90% 30.24 in 8.0 mi NNW 9.2 mph - 0.01 in   Overcast
12:53 PM 46.0 °F 41.9 °F 42.1 °F 86% 30.23 in 10.0 mi NNW 8.1 mph - 0.00 in   Overcast
1:04 PM 46.4 °F 41.9 °F 41.0 °F 81% 30.23 in 10.0 mi NNW 9.2 mph - N/A   Overcast
1:53 PM 46.9 °F - 41.0 °F 80% 30.23 in 10.0 mi North 5.8 mph - N/A   Overcast
2:53 PM 46.0 °F 42.5 °F 41.0 °F 83% 30.24 in 8.0 mi North 6.9 mph - N/A   Overcast
3:20 PM 46.4 °F 41.5 °F 41.0 °F 81% 30.26 in 8.0 mi NNW 10.4 mph - N/A   Overcast
3:49 PM 46.4 °F 42.4 °F 39.2 °F 76% 30.27 in 9.0 mi North 8.1 mph - N/A   Scattered Clouds
3:53 PM 46.0 °F 41.4 °F 39.9 °F 79% 30.27 in 8.0 mi North 9.2 mph - N/A   Partly Cloudy
4:53 PM 44.1 °F 40.1 °F 39.0 °F 82% 30.29 in 9.0 mi North 6.9 mph - N/A   Clear
5:53 PM 43.0 °F 38.2 °F 37.9 °F 82% 30.31 in 10.0 mi North 8.1 mph - N/A   Clear
6:53 PM 42.1 °F 39.2 °F 37.9 °F 85% 30.32 in 9.0 mi North 4.6 mph - N/A   Clear
7:53 PM 39.9 °F 36.7 °F 37.0 °F 89% 30.33 in 8.0 mi NNW 4.6 mph - N/A   Clear
8:53 PM 39.0 °F 34.0 °F 37.0 °F 93% 30.33 in 8.0 mi North 6.9 mph - N/A   Clear
9:53 PM 37.9 °F 32.7 °F 35.1 °F 89% 30.35 in 10.0 mi North 6.9 mph - N/A   Clear
10:53 PM 37.9 °F 32.1 °F 33.1 °F 83% 30.36 in 10.0 mi North 8.1 mph - N/A   Clear
11:53 PM 36.0 °F 30.3 °F 32.0 °F 86% 30.34 in 10.0 mi North 6.9 mph - N/A   Clear